Regional Weather Roundup
Issued by NWS San Angelo, TX

Home | Current Version | Previous Version | Text Only | Print | Product List | Glossary On
Versions: 1 2 3 4 5 6 7 8 9 10 11 12 13 14 15 16 17 18 19 20 21 22 23 24 25 26 27 28 29 30 31 32 33 34 35 36 37 38 39 40 41 42 43 44 45 46 47 48 49 50
000
ASUS44 KSJT 281002
RWRSJT
WEST CENTRAL TEXAS REGIONAL WEATHER ROUNDUP
NATIONAL WEATHER SERVICE SAN ANGELO TX
500 AM CDT MON MAY 28 2018

NOTE: "FAIR" INDICATES FEW OR NO CLOUDS BELOW 12,000 FEET WITH NO
SIGNIFICANT WEATHER AND/OR OBSTRUCTIONS TO VISIBILITY.

TXZ049-054-064>066-071>073-076>078-098-099-113-114-127-128-139-140-
154-155-168>170-281100
...LOCATIONS ACROSS WEST CENTRAL TEXAS...

CITY           SKY/WX    TMP DP  RH WIND       PRES   REMARKS
SAN ANGELO     CLEAR     77  63  61 S10       29.81S
ABILENE        PTCLDY    75  66  73 SE13      29.84S
DYESS AFB      CLEAR     77  62  60 SE6       29.84R
JUNCTION       CLEAR     75  62  64 SE3       29.85S
SWEETWATER     CLEAR     77  62  59 SE13G18   29.87S
BROWNWOOD      CLEAR     73  66  78 SE5       29.85R
COLEMAN        NOT AVBL
SONORA         CLEAR     77  59  53 S10       29.88S
OZONA          FAIR      75  61  60 S15       29.86S
BRADY          CLEAR     73  64  73 SE3       29.86R
$$

TEXAS PANHANDLE/OKLAHOMA PANHANDLE

CITY           SKY/WX    TMP DP  RH WIND       PRES   REMARKS
AMARILLO       CLEAR     69  63  81 SE18      29.90F
BORGER         CLEAR     73  66  78 SE20G28   29.87S
CANADIAN       CLEAR     72  68  86 SE12      29.89F
DALHART        CLEAR     69  62  78 S18       29.88R
DUMAS          SUNNY     68  62  80 E13G18    29.89R
GUYMON         NOT AVBL
HEREFORD       SUNNY     71  60  67 SE13      29.91R
PAMPA          NOT AVBL
PERRYTON       CLOUDY    73  66  77 SE21G30   29.88S
$$

SOUTHERN PANHANDLE/SOUTH PLAINS/ROLLING PLAINS

CITY           SKY/WX    TMP DP  RH WIND       PRES   REMARKS
LUBBOCK        PTCLDY    71  59  65 SE8       29.87R
SNYDER         CLEAR     76  61  59 SE12      29.84F
CHILDRESS      PTCLDY    73  69  87 SE13      29.86S
SEMINOLE       NOT AVBL
$$

PERMIAN BASIN

CITY           SKY/WX    TMP DP  RH WIND       PRES   REMARKS
MIDLAND        CLEAR     78  60  53 SE16      29.82S
ODESSA           N/A    N/A N/A N/A MISG      29.82S
WINK           CLEAR     78  56  46 MISG      29.77R
$$

FAR WEST/SOUTHWEST MOUNTAINS/TRANS PECOS

CITY           SKY/WX    TMP DP  RH WIND       PRES   REMARKS
ALPINE         SUNNY     74  44  34 SW9       29.96R
DRYDEN           N/A     78  61  55 E12       29.78R
EL PASO        PTCLDY    77  11   8 NW3       29.88R
FORT STOCKTON  CLEAR     77  57  50 S21       29.79R
GUADALUPE PASS CLEAR     79   6   6 W8        29.99S
MARFA          CLEAR     62  39  42 MISG      29.97R
PECOS          NOT AVBL
$$

DALLAS/FORT WORTH METROPLEX

CITY           SKY/WX    TMP DP  RH WIND       PRES   REMARKS
DFW AIRPORT    PTCLDY    74  71  91 SE6       29.83S
FTW MEACHAM    CLEAR     78  72  81 SE6       29.84R
DAL-EXECUTIVE  CLEAR     75  71  87 SE8       29.84S
GRAND PRAIRIE  PTCLDY    76  69  80 SE3       29.85S
ADDISON        NOT AVBL
MESQUITE       SUNNY     71  69  94 CALM      29.85S
LANCASTER      MOSUNNY   71  70  94 CALM      29.86R
$$

NORTH CENTRAL TEXAS

CITY           SKY/WX    TMP DP  RH WIND       PRES   REMARKS
SHRMAN/DENISON SUNNY     70  68  94 E5        29.87S
GAINESVILLE    CLEAR     70  67  90 SE5       29.88S
BRIDGEPORT     SUNNY     72  67  83 CALM      29.87R
DENTON         PTCLDY    73  68  84 SE6       29.84S
WAXAHACHIE     SUNNY     71  71 100 CALM      29.86S
GRANBURY       NOT AVBL
$$

WESTERN NORTH TEXAS

CITY           SKY/WX    TMP DP  RH WIND       PRES   REMARKS
WICHITA FALLS  CLOUDY    70  66  87 SE5       29.85R
VERNON         MOSUNNY   78  67  68 SE9       29.86S
BRECKENRIDGE   NOT AVBL
COMANCHE       CLEAR     70  70 100 SE6       29.85S
$$

CENTRAL AND SOUTH CENTRAL TEXAS

CITY           SKY/WX    TMP DP  RH WIND       PRES   REMARKS
AUSTIN/BERGSTM CLEAR     70  68  93 CALM      29.82R
WACO           CLEAR     74  71  91 SE5       29.83R
HILLSBORO      SUNNY     73  73  99 E8        29.84S
TEMPLE         CLEAR     73  71  93 SE3       29.84R
KILLEEN-GRAY   NOT AVBL
FORT HOOD      CLEAR     74  69  86 SE3       29.80R
GEORGETOWN     CLOUDY    74  68  81 CALM      29.85R
LAGO VISTA     FAIR      76  68  76 S3        29.85S
SAN MARCOS     CLEAR     70  67  90 CALM      29.83S
NEW BRAUNFELS  CLEAR    N/A N/A N/A CALM      29.81R
RANDOLPH AFB   CLEAR     71  68  90 CALM      29.82S
SAN ANTONIO    PTCLDY    74  69  85 S6        29.83R
STINSON        CLEAR     74  70  87 CALM      29.80R
PLEASANTON     NOT AVBL
LA GRANGE      CLEAR     73  72  98 CALM      29.80S
GIDDINGS       SUNNY     72  69  91 CALM      29.83S FOG
$$

EAST TEXAS

CITY           SKY/WX    TMP DP  RH WIND       PRES   REMARKS
PARIS          PTCLDY    70  68  93 E7        29.87S
CLARKSVILLE    NOT AVBL
TYLER          CLEAR     73  69  87 CALM      29.84S
LONGVIEW       CLEAR     71  71 100 CALM      29.84R
PALESTINE      SUNNY     72  72 100 CALM      29.85S
NACOGDOCHES      N/A     68  67  96 CALM      29.84S
$$

TEXAS HILL COUNTRY AND EDWARDS PLATEAU

CITY           SKY/WX    TMP DP  RH WIND       PRES   REMARKS
LLANO          NOT AVBL
HORSESHOE BAY  FAIR      75  65  72 CALM      29.83F
KERRVILLE      CLEAR     72  64  76 SE5       29.86S
FREDERICKSBRG  CLEAR     70  60  70 CALM      29.87S
ROCKSPRINGS    SUNNY     73  59  60 SE10G17   29.91S
HONDO          CLEAR     72  67  84 E5        29.82S
UVALDE         SUNNY     69  65  85 NE8       29.82S
DEL RIO        CLEAR     79  64  60 E9        29.77R
$$

SOUTHEAST TEXAS

CITY           SKY/WX    TMP DP  RH WIND       PRES   REMARKS
COLLEGE STN    PTCLDY    76  72  87 CALM      29.82S
CALDWELL       SUNNY     72  71  95 CALM      29.83S
CROCKETT       NOT AVBL
BRENHAM        PTCLDY    74  73  96 CALM      29.82S
HUNTSVILLE     CLEAR     73  70  90 CALM      29.82F
CONROE         CLEAR     70  70 100 CALM      29.82S
HOUSTON BUSH   FAIR      74  73  97 CALM      29.81R
HOUSTON HOBBY  FAIR      75  75 100 CALM      29.80S
PERLAND        FAIR      73  73 100 CALM      29.81S
WHARTON        SUNNY     71  69  95 CALM      29.81S FOG
$$

THE UPPER TEXAS COAST

CITY           SKY/WX    TMP DP  RH WIND       PRES   REMARKS
ORANGE         FAIR      71  71 100 CALM      29.82S
PORT ARTHUR    FAIR      72  70  93 N3        29.80S FOG
GALVESTON      FAIR      79  75  87 NW3       29.81R
ANGLETON       FAIR      73  71  93 CALM      29.80S
BAY CITY       FAIR      73  73 100 CALM      29.80S
$$

TEXAS COASTAL BEND, RIO GRANDE PLAINS DEEP SOUTH TEXAS

CITY           SKY/WX    TMP DP  RH WIND       PRES   REMARKS
VICTORIA       CLEAR     71  70  96 CALM      29.80R FOG
BEEVILLE       FOG       72  72  99 CALM      29.79S VSB 1
ROCKPORT       CLEAR     77  73  87 S3        29.78S
PORT ARANSAS     N/A    N/A N/A N/A MISG        N/A
PORT LAVACA    SUNNY     72  70  92 CALM      29.79S
CORPUS CHRISTI PTCLDY    72  72 100 S6        29.78S
KINGSVILLE NAS CLEAR     73  71  93 S3        29.78S
COTULLA        CLEAR     74  70  87 SE10      29.78S
LAREDO         CLEAR     78  70  76 SE12      29.77S
BROWNSVILLE    FAIR      74  73  97 S5        29.78S
PORT ISABEL    FAIR      76  71  85 S6        29.77F
HEBBRONVILLE   NOT AVBL
MCALLEN        PTCLDY    77  75  93 SE5       29.78S
WESLACO        NOT AVBL
FALFURRIAS       N/A     73  70  90 SE3       29.78S VSB<1/4
EDINBURG       SUNNY     74  72  91 CALM      29.77F
$$




USA.gov is the U.S. government's official web portal to all federal, state and local government web resources and services.